This is the latest recevied weather packets stored in our database for station/object KK4PWJ-13. If no packets are shown the sender has not sent any weather packets the latest 10 day(s).
| Time | Temp. | Humidity | Pressure | Rain* | Wind** | Luminosity | Snow |
|---|---|---|---|---|---|---|---|
| 1778097383 | 20.56° C | 88% | 1009.7 hPa | 0 mm | - | 209 W/m² | - |
| 1778096171 | 20° C | 89% | 1010.5 hPa | 0 mm | - | 231 W/m² | - |
| 1778095260 | 19.44° C | 91% | 1010.4 hPa | 0 mm | - | 189 W/m² | - |
| 1778094957 | 18.89° C | 92% | 1010.2 hPa | 0 mm | - | 169 W/m² | - |
| 1778093139 | 18.89° C | 88% | 1011.4 hPa | 0 mm | - | 64 W/m² | - |
| 1778092531 | 19.44° C | 84% | 1012.4 hPa | 1.78 mm | - | 80 W/m² | - |
| 1778091623 | 21.11° C | 76% | 1012.4 hPa | 0 mm | - | 71 W/m² | - |
| 1778091321 | 21.67° C | 70% | 1012.5 hPa | 0 mm | - | 59 W/m² | - |
| 1778091017 | 21.67° C | 69% | 1012.5 hPa | 0 mm | - | 68 W/m² | - |
| 1778090714 | 22.22° C | 69% | 1012.2 hPa | 0 mm | - | 104 W/m² | - |
| 1778089198 | 21.67° C | 72% | 1012 hPa | 0 mm | - | 154 W/m² | - |
| 1778088896 | 21.67° C | 71% | 1012 hPa | 0 mm | - | 155 W/m² | - |
| 1778088290 | 21.67° C | 74% | 1011.9 hPa | 0 mm | - | 217 W/m² | - |
| 1778084949 | 19.44° C | 79% | 1012.4 hPa | 0 mm | - | 99 W/m² | - |
| 1778084344 | 19.44° C | 78% | 1012.2 hPa | 0 mm | - | 74 W/m² | - |
| 1778084042 | 19.44° C | 76% | 1012.2 hPa | 0 mm | - | 98 W/m² | - |
| 1778083739 | 19.44° C | 76% | 1012.5 hPa | 0 mm | - | 110 W/m² | - |
| 1778078073 | 18.89° C | 74% | 1012.1 hPa | 0 mm | - | 78 W/m² | - |
| 1778077772 | 18.89° C | 74% | 1011.9 hPa | 0 mm | - | 100 W/m² | - |
| 1778077167 | 18.89° C | 74% | 1011.7 hPa | 0 mm | - | 110 W/m² | - |
| 1778076865 | 18.89° C | 74% | 1011.6 hPa | 0 mm | - | 91 W/m² | - |
| 1778076563 | 18.33° C | 74% | 1011.6 hPa | 0 mm | - | 102 W/m² | - |
| 1778075654 | 18.33° C | 74% | 1012 hPa | 0 mm | - | 98 W/m² | - |
| 1778074743 | 17.78° C | 76% | 1012.1 hPa | 0 mm | - | 70 W/m² | - |
| 1778074439 | 17.78° C | 77% | 1012.1 hPa | 0 mm | - | 79 W/m² | - |
* Rain latest hour (hover to see other rain measurements)
** Current wind speed in m/s (hover to see current wind gust speed)